Skip Page Navigation
NASA JPL Caltech
NASA Logo - Jet Propulsion Laboratory + View the NASA Portal
+ Center for Near-Earth Object Studies
JPL Home Earth Solar System Stars & Galaxies Technology
JPL Solar System Dynamics
BODIES ORBITS EPHEMERIDES TOOLS PHYSICAL DATA DISCOVERY FAQ SITE MAP
JPL Small-Body Database Browser
Search: [ help ]  
332510 (2008 GG82)
Classification: Main-belt Asteroid          SPK-ID: 2332510
Ephemeris | Orbit Diagram | Orbital Elements | Mission Design | Physical Parameters | Discovery Circumstances | Close-Approach Data ]

[ show orbit diagram ]
Orbital Elements at Epoch 2459000.5 (2020-May-31.0) TDB
Reference: JPL 16 (heliocentric ecliptic J2000)
 Element Value Uncertainty (1-sigma)   Units 
e .09614889615867507 7.6363e-08  
a 2.368783184669174 2.3973e-08 au
q 2.141027296224002 1.8189e-07 au
i 11.09017477395671 8.1203e-06 deg
node 58.8077961964751 2.8774e-05 deg
peri 325.8106458398937 4.3333e-05 deg
M 299.4553792236755 3.8015e-05 deg
tp 2459224.454326372159
(2021-Jan-09.95432637)
0.00014241 TDB
period 1331.638656914413
3.65
2.0215e-05
5.535e-08
d
yr
n .2703436087040074 4.104e-09 deg/d
Q 2.596539073114346 2.6278e-08 au
  Orbit Determination Parameters
   # obs. used (total)      170  
   data-arc span      6102 days (16.71 yr)  
   first obs. used      2002-10-15  
   last obs. used      2019-06-30  
   planetary ephem.      DE431  
   SB-pert. ephem.      SB431-N16  
   condition code      0  
   norm. resid. RMS      .63512  
   source      ORB  
   producer      Otto Matic  
   solution date      2020-Feb-25 21:08:46  

Additional Information
 Earth MOID = 1.1556 au 
 Jupiter MOID = 2.82152 au 
 T_jup = 3.515 
[ show covariance matrix ]

Ephemeris | Orbit Diagram | Orbital Elements | Mission Design | Physical Parameters | Discovery Circumstances | Close-Approach Data ]

Physical Parameter Table
Parameter Symbol Value Units Sigma Reference Notes
absolute magnitude H 16.9   n/a MPO434081  

332510 (2008 GG82)          Discovered 2008-Apr-08 by Spacewatch at Kitt Peak
Reference: 20120703/Numbers.arcLast Updated: 2012-07-09

[ show close-approach data ]
Ephemeris | Orbit Diagram | Orbital Elements | Mission Design | Physical Parameters | Discovery Circumstances | Close-Approach Data ]
ABOUT SSD CREDITS/AWARDS PRIVACY/COPYRIGHT GLOSSARY LINKS
FirstGov 2020-Sep-24 08:03 UT
(server date/time)  
NASA Home Page
Site Manager:   Ryan S. Park
Webmaster  Alan B. Chamberlin